Track STARLINK-2192 now! 10-day predictions STARLINK-2192 is classified as:
1 47769U 21017AZ 22224.57052938 .00008953 00000-0 61917-3 0 9997 2 47769 53.0539 290.5382 0001463 72.6064 287.5085 15.06401548 81343